Theta_e
316 315 312 311 310 308 307 306 305 304 304 303 302 302 302 300 300 301 302 314 319 320 317 320 318 316 315 314 313 312 313 314 314 313 313 312 312 311 311 311 312 312 314
313 311 309 309 308 306 305 304 303 303 302 301 300 301 299 299 298 298 299 301 316 320 319 317 315 313 312 311 311 311 312 312 311 311 312 310 309 309 309 309 309 310 311
312 310 307 306 306 305 304 303 303 302 301 300 298 298 298 298 297 296 297 300 308 315 317 313 312 310 310 310 309 309 309 309 308 309 309 309 309 308 307 307 307 308 309
311 307 305 305 304 304 303 302 301 300 298 297 295 294 296 296 296 295 295 301 304 304 307 312 310 309 308 307 307 307 307 307 307 307 308 307 306 306 305 305 305 306 306
309 305 304 304 303 302 301 301 298 298 296 295 297 294 293 293 293 295 294 295 296 299 299 305 307 306 303 302 302 303 304 305 305 306 305 304 304 304 304 304 304 304 305
307 305 303 303 302 300 299 297 296 295 295 294 297 294 292 292 291 291 290 293 292 292 293 294 293 293 302 302 302 302 303 304 304 303 303 302 302 302 303 303 303 303 303
305 303 302 301 301 299 297 297 295 294 294 292 291 291 290 290 290 289 289 288 290 290 291 291 291 290 291 299 300 302 302 302 302 302 302 302 301 301 301 302 302 302 303
303 303 301 299 298 297 296 295 295 293 293 292 290 288 286 288 289 289 287 288 286 288 289 290 289 289 289 288 294 298 300 300 301 301 300 300 300 300 301 301 301 301 302
301 298 297 295 295 294 293 293 294 293 291 291 290 289 284 283 284 287 286 286 285 286 286 288 288 289 288 287 290 293 297 296 297 298 298 299 299 300 300 300 300 300 301
296 296 295 295 295 294 293 293 296 293 291 289 290 292 288 287 283 281 284 285 286 287 285 286 286 287 288 287 291 293 296 298 297 296 297 298 298 299 299 299 299 300 300
296 295 295 294 294 294 294 294 293 292 292 291 290 289 287 285 283 281 279 282 284 285 285 285 285 286 286 287 286 289 296 294 294 295 296 297 297 298 298 298 299 299 299
293 294 294 294 296 297 294 293 292 292 291 290 290 288 286 285 283 281 279 280 280 283 284 285 285 285 285 285 290 293 293 292 292 292 294 295 296 297 297 297 297 298 298
292 293 295 295 295 297 295 294 294 291 291 289 289 288 288 287 286 284 282 280 280 281 282 284 285 284 286 283 285 290 291 290 290 291 292 292 293 293 294 295 296 297 298
294 295 294 295 293 292 293 294 293 291 290 289 289 288 289 287 286 285 283 281 278 279 280 282 283 283 282 282 286 289 284 288 288 289 290 290 291 291 292 293 294 295 296
295 295 294 294 292 291 290 291 291 291 291 290 289 288 287 287 286 286 285 284 282 276 277 279 280 281 281 281 282 283 282 286 287 287 288 288 289 290 291 292 292 293 294
296 294 294 293 291 290 291 291 291 292 290 288 288 288 287 286 287 286 284 283 282 281 278 279 278 279 280 281 282 281 281 286 286 287 286 287 288 289 290 290 291 291 292
294 294 294 292 290 290 291 290 289 288 288 288 288 287 287 287 286 284 284 282 280 279 276 277 278 278 277 277 279 279 281 280 281 285 286 287 287 287 287 289 290 290 290
294 292 292 291 290 291 291 289 287 288 287 287 286 286 286 288 284 283 281 279 278 277 276 275 275 276 276 277 277 277 280 282 280 284 285 285 285 285 286 288 288 288 288
291 291 290 290 291 291 290 288 288 288 288 287 287 286 286 285 282 280 279 278 277 279 276 275 275 276 276 276 277 278 279 279 281 284 283 283 284 284 285 286 286 287 287
290 289 290 291 292 290 290 290 288 287 286 286 286 285 285 283 281 279 278 277 277 275 275 275 275 275 275 277 276 275 276 278 277 280 281 282 283 284 284 284 285 286 287
291 290 291 292 290 290 290 289 288 286 284 284 284 283 282 283 285 281 278 276 276 275 274 274 273 274 274 274 273 274 274 275 276 278 278 278 279 280 280 282 284 285 286
292 291 291 290 289 290 290 291 287 284 284 283 282 282 281 285 285 286 285 283 279 275 273 272 273 272 272 273 273 273 273 274 273 278 277 277 279 278 279 280 283 285 286
291 291 290 290 289 288 290 290 289 283 282 282 281 281 280 281 282 281 283 282 280 280 279 274 272 272 272 274 274 274 275 276 275 278 277 276 277 276 279 281 284 286 287
291 290 289 289 288 288 289 289 288 282 281 281 281 280 279 279 279 278 277 277 276 277 277 277 275 274 275 276 276 278 278 278 278 278 278 274 276 276 279 280 285 287 287
289 288 288 287 286 286 288 288 285 280 280 280 281 281 280 279 281 283 278 277 276 276 279 280 280 281 281 281 280 277 274 274 273 275 277 276 275 276 278 279 281 285 286
288 287 285 285 286 284 287 288 285 279 279 280 280 280 284 281 282 283 277 275 274 276 275 276 276 277 278 277 280 277 276 274 274 273 276 275 277 278 275 276 277 279 278
Wind_Speed
4 4 4 4 5 4 4 5 5 5 5 5 6 6 6 6 7 4 3 8 5 5 0 5 5 6 7 9 10 11 10 12 13 12 12 14 15 17 18 19 20 21 22
4 5 4 4 5 4 4 4 4 5 5 5 6 5 5 6 6 6 4 4 4 3 0 3 4 5 6 8 8 9 10 11 13 11 11 11 13 15 17 19 20 20 21
5 6 5 5 4 4 6 5 5 5 5 3 5 5 5 6 5 6 5 4 5 9 8 6 5 5 5 5 6 7 7 8 10 8 7 12 13 14 15 17 19 20 21
7 6 5 4 4 5 4 4 3 4 4 5 3 4 5 5 5 6 6 5 4 5 8 13 9 8 7 6 7 7 7 7 11 9 8 10 11 13 15 17 18 19 21
6 6 5 4 5 5 5 3 3 2 3 3 2 3 5 4 5 5 7 8 7 5 4 8 8 5 3 3 5 6 8 10 12 9 12 13 13 14 16 16 18 19 21
6 6 5 5 4 5 4 3 3 4 3 2 3 4 4 3 3 5 5 6 6 7 5 6 5 5 10 11 9 9 11 13 11 8 11 12 14 14 15 17 19 20 21
6 6 4 5 5 5 4 2 2 5 4 3 3 3 3 3 4 4 3 4 6 5 6 5 3 3 4 13 13 13 13 13 13 13 12 13 14 15 17 19 20 21 22
6 5 5 5 5 4 5 5 5 2 2 3 3 1 3 3 2 3 2 3 4 3 4 4 4 4 3 3 6 11 11 13 14 13 12 14 15 16 19 21 22 23 24
6 6 6 5 5 5 5 4 3 3 1 2 3 3 1 3 3 2 1 1 2 1 3 2 3 3 3 3 5 6 12 11 12 14 16 17 18 19 21 23 24 24 25
7 7 6 6 6 4 5 2 2 1 2 1 2 3 3 3 4 3 3 3 4 1 0 1 2 3 3 3 7 10 12 14 14 13 16 17 19 21 22 23 26 26 26
6 6 6 6 6 4 3 4 4 4 2 2 2 1 1 0 0 3 3 3 3 3 3 2 2 2 4 4 4 6 9 10 9 11 15 17 20 22 24 26 29 30 29
4 6 6 6 5 4 3 1 2 3 2 2 2 2 2 2 3 3 2 4 4 4 3 3 3 2 4 4 6 9 10 9 10 13 17 20 23 25 27 28 29 30 29
3 5 5 4 4 2 4 3 3 2 3 2 3 3 3 3 3 3 3 3 4 3 3 2 3 3 3 3 4 12 13 14 15 17 20 21 23 26 26 25 25 25 26
5 4 6 5 4 2 2 3 2 3 3 3 4 4 3 3 3 2 2 2 2 2 2 5 2 2 2 3 8 17 7 15 18 20 20 21 21 21 22 23 24 24 25
6 6 6 5 5 4 4 4 4 4 4 3 4 5 4 3 3 3 2 3 4 2 3 3 3 2 3 3 7 6 6 15 20 19 19 19 20 21 20 21 22 22 22
9 8 7 6 6 4 5 5 4 4 3 3 3 4 3 2 3 3 3 2 3 4 4 4 3 3 3 5 8 6 7 16 17 16 18 20 20 20 21 22 20 21 22
8 7 7 6 5 5 4 3 4 4 4 4 3 4 4 3 3 2 1 2 2 2 3 3 2 2 3 4 7 5 7 6 6 15 19 20 20 21 21 21 19 19 20
7 8 7 6 6 5 5 6 6 5 6 5 5 3 3 2 3 2 3 4 3 3 3 5 2 2 4 4 6 7 7 7 5 14 21 23 24 24 22 18 19 19 21
7 7 6 7 6 6 6 6 6 6 6 6 6 6 6 5 4 3 4 3 2 2 3 3 4 2 4 4 5 5 6 7 6 18 21 21 20 20 20 22 21 21 22
6 6 7 6 6 6 6 6 6 6 6 6 6 6 5 6 6 5 4 4 3 3 3 3 5 5 4 4 3 4 9 6 9 9 15 14 18 20 22 20 20 21 21
5 4 3 5 5 5 6 7 7 7 7 6 5 5 5 6 9 7 4 5 4 2 2 4 5 4 5 4 5 5 8 9 9 8 6 7 8 8 10 14 16 20 19
3 3 4 5 6 5 9 11 9 6 6 7 6 6 5 7 6 9 9 8 7 3 3 3 3 4 5 4 3 5 7 7 6 2 3 11 7 8 8 7 17 20 22
3 4 5 6 6 6 9 10 13 6 6 6 6 5 4 4 6 5 7 6 5 7 8 4 5 4 4 4 5 8 9 8 8 8 5 10 3 8 7 9 20 20 19
4 3 5 5 5 6 9 10 12 7 6 6 6 6 6 6 6 6 5 5 5 5 5 5 5 6 6 6 6 8 10 9 7 6 4 7 4 8 8 7 16 10 12
3 4 4 6 6 7 9 11 9 5 5 7 6 6 6 6 9 13 6 5 5 6 6 9 8 10 12 14 12 5 6 7 9 8 4 4 3 7 7 8 5 9 11
4 4 5 5 7 7 7 11 11 4 5 5 5 6 12 8 11 13 6 5 5 6 4 4 4 6 8 8 14 5 5 6 7 7 2 3 9 5 4 3 3 3 4
Wind_Direction
116 112 95 79 73 81 82 80 75 66 58 57 48 47 41 28 21 2 357 349 351 329 308 150 132 104 81 67 55 50 48 56 41 37 48 40 32 24 14 11 6 360 354
124 96 96 82 80 76 78 77 74 66 53 43 45 55 41 43 33 10 346 344 324 289 131 119 99 80 79 65 46 43 52 40 31 23 37 32 25 16 11 5 1 355 350
110 110 94 78 96 92 85 68 59 56 47 34 54 36 43 35 29 5 359 14 21 27 52 74 94 68 60 63 44 40 54 28 21 17 18 20 11 10 6 360 354 349 344
109 100 104 101 104 86 84 72 60 63 60 40 29 28 38 37 27 18 26 30 40 47 39 54 67 63 53 30 14 360 359 346 345 336 10 1 359 360 356 350 346 342 338
107 107 105 105 105 92 83 105 62 101 68 25 63 51 44 51 33 30 34 42 43 50 33 34 54 49 33 343 335 326 329 326 324 341 334 340 341 340 342 338 335 334 332
111 110 108 124 116 99 87 82 100 60 83 58 47 26 48 47 51 45 37 49 48 44 40 37 22 1 20 21 356 341 327 318 317 322 313 323 328 329 329 325 325 326 326
131 130 124 111 88 92 107 79 86 56 40 32 61 359 41 35 30 48 53 52 44 32 37 44 50 27 12 11 5 343 329 320 316 305 311 328 325 319 316 316 316 317 320
141 119 108 90 98 100 71 57 56 57 72 14 126 100 17 326 358 52 58 59 45 23 38 52 44 36 36 30 0 2 352 335 323 317 311 306 307 306 307 308 312 315 314
90 95 91 88 73 67 57 44 54 83 142 2 32 135 79 239 338 333 9 66 236 95 25 16 32 43 59 11 359 334 318 300 297 293 294 296 300 304 309 312 310 308 309
89 89 88 78 73 76 68 50 67 65 94 140 359 10 36 140 193 310 317 305 326 36 222 261 339 330 352 337 325 319 319 304 296 295 293 297 303 309 309 310 307 305 303
85 82 89 86 76 66 63 104 100 104 129 133 182 220 230 298 158 164 248 295 332 286 281 252 272 281 307 337 323 316 347 14 349 325 314 309 305 305 306 306 303 301 299
100 101 90 93 85 80 106 129 137 133 125 138 200 191 196 208 232 205 223 255 232 271 250 254 263 317 345 352 354 1 343 347 329 315 306 303 301 301 303 299 297 295 293
110 106 101 92 80 114 147 168 165 176 185 187 197 212 202 216 192 194 176 245 241 284 297 278 263 9 16 16 350 339 333 321 314 306 303 300 301 300 297 295 293 291 293
135 145 120 108 133 137 142 200 199 195 200 218 220 223 236 234 197 185 197 161 302 273 285 256 332 68 353 342 334 325 308 311 311 308 307 305 299 294 297 296 294 293 294
142 146 145 151 175 180 181 205 206 208 207 221 236 247 223 224 201 176 179 178 178 245 251 265 251 250 1 317 311 306 301 309 305 308 305 311 305 297 298 297 298 298 296
156 166 155 172 189 191 200 201 192 202 216 248 246 271 236 207 200 180 181 174 166 177 264 202 252 273 295 311 308 314 292 311 307 307 315 308 303 306 303 298 297 297 297
162 169 165 179 187 207 199 162 194 222 221 244 255 228 214 201 217 210 209 196 201 145 241 279 245 261 278 296 293 282 288 284 279 310 308 306 308 303 301 293 295 293 297
168 169 173 177 201 211 193 203 219 222 221 221 199 189 216 192 221 219 195 211 206 210 215 270 266 275 255 276 271 288 294 299 293 302 306 304 300 297 297 299 296 299 296
167 171 173 195 205 214 212 219 220 225 209 195 191 199 219 209 224 209 213 222 227 239 220 243 281 264 268 270 291 286 287 290 285 302 304 304 304 301 299 294 296 296 297
156 174 200 208 224 226 226 218 199 200 199 193 206 213 215 209 206 215 221 226 217 237 246 262 280 280 261 283 273 307 310 303 304 302 300 292 291 296 301 296 288 289 292
187 198 228 255 259 245 239 225 193 192 196 196 202 201 209 214 219 208 181 211 204 227 262 271 276 273 292 308 314 313 301 306 301 281 284 287 290 295 288 290 286 288 291
102 227 253 274 277 258 238 225 185 184 190 193 204 215 218 238 231 194 206 190 187 201 242 238 251 269 284 281 290 293 294 301 307 249 284 295 296 288 286 281 280 286 289
45 336 315 282 274 267 256 233 195 177 185 199 202 205 211 218 209 200 211 213 236 258 256 230 252 251 268 271 286 296 290 281 279 294 291 292 306 287 286 282 292 303 296
272 273 275 277 286 276 258 231 193 178 197 203 202 203 207 215 213 208 207 228 241 253 261 249 237 256 252 267 253 283 296 298 286 280 259 276 298 288 288 284 294 316 348
266 272 263 290 299 284 256 220 186 181 193 210 208 205 204 215 228 221 199 225 251 264 268 264 276 297 308 312 313 309 303 310 306 304 268 252 283 292 287 282 272 304 340
256 274 293 294 280 279 270 221 198 173 202 213 216 218 224 207 221 214 199 213 247 262 256 271 285 296 302 295 309 296 289 297 305 307 238 299 302 295 294 274 280 292 306